Location: Poughquag
(41.6090°N, 73.6820°W)
Time: 17:29:01
(UTC-05:00)

N. Korean satellite - Visible Passes

Search period start: 25 January 2021 00:00
Search period end: 04 February 2021 00:00
Orbit: 452 x 502 km, 97.2° (Epoch: 24 January)

Date Brightness Start Highest point End Pass type
(mag) Time Alt. Az. Time Alt. Az. Time Alt. Az.
25 Jan 9.5 04:30:54 10° NE 04:33:07 16° E 04:35:19 10° SE visible
25 Jan 7.4 06:03:32 10° NNW 06:06:28 26° WNW 06:09:23 10° SW visible
26 Jan 6.3 05:36:35 10° N 05:40:00 61° WNW 05:43:21 10° SSW visible
26 Jan 10.2 17:47:08 10° WSW 17:48:16 11° W 17:49:23 10° WNW visible
27 Jan 7.1 05:10:01 10° NNE 05:13:25 54° E 05:16:45 10° S visible
28 Jan 8.8 04:43:54 10° NE 04:46:44 23° E 04:49:32 10° SSE visible
28 Jan 7.9 06:17:27 10° NNW 06:19:53 18° WNW 06:22:18 10° WSW visible
29 Jan 9.9 04:18:57 10° ENE 04:19:57 11° E 04:20:55 10° ESE visible
29 Jan 6.8 05:50:14 10° N 05:53:27 38° WNW 05:56:38 10° SW visible
30 Jan 6.3 05:23:28 10° NNE 05:26:55 87° ESE 05:30:19 10° SSW visible
30 Jan 9.8 17:32:49 10° SW 17:35:06 16° W 17:37:22 10° NW visible
31 Jan 8.0 04:57:06 10° NNE 05:00:16 35° E 05:03:25 10° SSE visible
31 Jan 8.3 06:31:40 10° NW 06:33:15 13° WNW 06:34:50 10° W visible
01 Feb 9.4 04:31:18 10° NE 04:33:32 16° E 04:35:44 10° SE visible
01 Feb 7.4 06:03:58 10° NNW 06:06:52 26° WNW 06:09:44 10° SW visible
02 Feb 6.4 05:36:59 10° N 05:40:21 59° WNW 05:43:43 10° SSW visible
02 Feb 10.4 17:47:54 10° WSW 17:48:41 11° W 17:49:28 10° WNW visible
03 Feb 7.1 05:10:24 10° NNE 05:13:46 55° E 05:17:06 10° S visible
